This is the latest recevied weather packets stored in our database for station/object AB8DT-10. If no packets are shown the sender has not sent any weather packets the latest 10 day(s).
| Time | Temp. | Humidity | Pressure | Rain* | Wind** | Luminosity | Snow |
|---|---|---|---|---|---|---|---|
| 1778003210 | 12.22° C | 31% | 0 hPa | 0 mm | - | - | - |
| 1778002910 | 12.78° C | 33% | 0 hPa | 0 mm | - | - | - |
| 1778002610 | 12.22° C | 34% | 0 hPa | 0 mm | - | - | - |
| 1778002310 | 12.22° C | 31% | 0 hPa | 0 mm | - | - | - |
| 1778002010 | 12.22° C | 33% | 0 hPa | 0 mm | - | - | - |
| 1778001710 | 12.22° C | 33% | 0 hPa | 0 mm | - | - | - |
| 1778001410 | 12.22° C | 32% | 0 hPa | 0 mm | - | - | - |
| 1778001110 | 11.67° C | 31% | 0 hPa | 0 mm | - | - | - |
| 1778000810 | 12.22° C | 31% | 0 hPa | 0 mm | - | - | - |
| 1778000510 | 11.67° C | 33% | 0 hPa | 0 mm | - | - | - |
| 1778000210 | 12.22° C | 31% | 0 hPa | 0 mm | - | - | - |
| 1777999910 | 11.67° C | 34% | 0 hPa | 0 mm | - | - | - |
| 1777999610 | 12.22° C | 33% | 0 hPa | 0 mm | - | - | - |
| 1777999310 | 11.67° C | 33% | 0 hPa | 0 mm | - | - | - |
| 1777999010 | 11.67° C | 34% | 0 hPa | 0 mm | - | - | - |
| 1777998710 | 11.67° C | 33% | 0 hPa | 0 mm | - | - | - |
| 1777998410 | 11.67° C | 35% | 0 hPa | 0 mm | - | - | - |
| 1777998110 | 11.67° C | 34% | 0 hPa | 0 mm | - | - | - |
| 1777997810 | 11.11° C | 34% | 0 hPa | 0 mm | - | - | - |
| 1777997510 | 11.67° C | 33% | 0 hPa | 0 mm | - | - | - |
| 1777997210 | 11.67° C | 35% | 0 hPa | 0 mm | - | - | - |
| 1777996910 | 11.11° C | 34% | 0 hPa | 0 mm | - | - | - |
| 1777996610 | 11.67° C | 35% | 0 hPa | 0 mm | - | - | - |
| 1777996310 | 11.67° C | 36% | 0 hPa | 0 mm | - | - | - |
| 1777996010 | 11.11° C | 37% | 0 hPa | 0 mm | - | - | - |
* Rain latest hour (hover to see other rain measurements)
** Current wind speed in m/s (hover to see current wind gust speed)